Oroville, CA

1:02 AM PDT on October 19, 2019 (GMT -0700)
Oroville Municipal

Weather History for KOVE - September, 2019

Change the Weather History Date:

Monday, September 16, 2019

  Actual Average Record
Temperature  
Mean Temperature 70 °F -  
Max Temperature 77 °F 86 °F 106 °F (1971)
Min Temperature 62 °F 54 °F 40 °F (1987)
Cooling Degree Days 4    
Growing Degree Days 20 (Base 50)    
Moisture  
Dew Point 56 °F    
Average Humidity 68    
Maximum Humidity 93    
Minimum Humidity 37    
Precipitation  
Precipitation 0.34 in - - ()
Sea Level Pressure  
Sea Level Pressure 29.88 in    
Wind  
Wind Speed 11 mph (SSE)    
Max Wind Speed 20 mph    
Max Gust Speed 25 mph    
Visibility 8 miles    
Events Rain , Thunderstorm    
Averages and records for this station are not official NWS values.
T = Trace of Precipitation, MM = Missing Value Source: NWS Daily Summary

Daily Weather History Graph

Daily Weather History Graph

Search for Another Location

Airport or City:

Astronomy

Sep. 16, 2019 Rise Set
Actual Time 6:48 AM PDT 7:13 PM PDT
Civil Twilight 6:21 AM PDT 7:40 PM PDT
Nautical Twilight 5:49 AM PDT 8:12 PM PDT
Astronomical Twilight 5:17 AM PDT 8:44 PM PDT
Moon 8:51 PM PDT (9/16) 9:00 AM PDT (9/16)
Length of Visible Light 13h 18m
Length of Day
12h 25m
Waning Gibbous, 94% of the Moon is Illuminated
Sep 16
Waning Gibbous
Sep 21
Last Quarter
Sep 28
New
Oct 5
First Quarter
Oct 13
Full

Hourly Weather History & Observations

Time (PDT) Temp. Dew Point Humidity Pressure Visibility Wind Dir Wind Speed Gust Speed Precip Events Conditions
12:53 AM 69.1 °F 54.0 °F 58% 29.78 in 10.0 mi SSE 12.7 mph - N/A   Clear
1:53 AM 68.0 °F 55.9 °F 65% 29.80 in 10.0 mi SSE 19.6 mph - N/A   Clear
2:53 AM 66.9 °F 57.9 °F 73% 29.80 in 10.0 mi SE 16.1 mph 25.3 mph N/A   Clear
3:53 AM 66.9 °F 57.9 °F 73% 29.81 in 10.0 mi SE 17.3 mph 21.9 mph N/A   Partly Cloudy
4:53 AM 68.0 °F 57.9 °F 70% 29.82 in 10.0 mi SSE 11.5 mph - N/A   Overcast
5:53 AM 68.0 °F 57.9 °F 70% 29.81 in 10.0 mi SSE 15.0 mph - N/A   Overcast
6:53 AM 66.0 °F 61.0 °F 84% 29.85 in 4.0 mi South 12.7 mph 21.9 mph 0.07 in Rain Heavy Rain
7:00 AM 64.9 °F 61.0 °F 87% 29.84 in 2.5 mi WSW 5.8 mph 18.4 mph 0.04 in Rain Heavy Rain
7:09 AM 64.0 °F 61.0 °F 90% 29.84 in 4.0 mi SSW 6.9 mph - 0.05 in Rain Light Rain
7:18 AM 64.0 °F 61.0 °F 90% 29.84 in 2.5 mi South 16.1 mph 20.7 mph 0.12 in Rain , Thunderstorm Heavy Rain
7:35 AM 64.0 °F 61.0 °F 90% 29.84 in 5.0 mi South 9.2 mph - 0.16 in Rain Rain
7:44 AM 64.0 °F 61.0 °F 90% 29.84 in 3.0 mi South 13.8 mph - 0.20 in Rain Heavy Rain
7:49 AM 64.4 °F 60.8 °F 88% 29.84 in 2.5 mi SSW 6.9 mph - 0.21 in Rain Rain
7:53 AM 64.0 °F 62.1 °F 93% 29.84 in 3.0 mi South 8.1 mph - 0.21 in Rain Light Rain
8:47 AM 64.4 °F 60.8 °F 88% 29.83 in 10.0 mi SW 4.6 mph - 0.06 in Rain Light Rain
8:53 AM 64.0 °F 61.0 °F 90% 29.84 in 10.0 mi South 9.2 mph - 0.06 in   Mostly Cloudy
9:03 AM 64.0 °F 61.0 °F 90% 29.84 in 10.0 mi South 10.4 mph - N/A   Mostly Cloudy
9:53 AM 64.9 °F 60.1 °F 84% 29.87 in 10.0 mi South 10.4 mph - N/A   Mostly Cloudy
10:53 AM 69.1 °F 59.0 °F 70% 29.88 in 10.0 mi Variable 3.5 mph - N/A   Mostly Cloudy
11:08 AM 68.0 °F 60.1 °F 76% 29.88 in 10.0 mi SE 3.5 mph - N/A   Mostly Cloudy
11:33 AM 69.1 °F 59.0 °F 70% 29.88 in 10.0 mi SE 8.1 mph - N/A   Mostly Cloudy
11:51 AM 69.8 °F 57.2 °F 64% 29.89 in 10.0 mi Variable 4.6 mph - N/A   Mostly Cloudy
11:53 AM 70.0 °F 57.0 °F 63% 29.90 in 10.0 mi Variable 3.5 mph - N/A   Mostly Cloudy
12:53 PM 73.0 °F 46.0 °F 38% 29.91 in 10.0 mi North - - N/A   Partly Cloudy
1:53 PM 75.0 °F 46.9 °F 37% 29.92 in 10.0 mi Variable 4.6 mph - N/A   Overcast
2:53 PM 75.9 °F 52.0 °F 43% 29.92 in 10.0 mi South 13.8 mph - N/A   Clear
3:53 PM 75.0 °F 50.0 °F 41% 29.92 in 10.0 mi SSE 9.2 mph 17.3 mph N/A   Partly Cloudy
4:53 PM 73.0 °F 48.9 °F 42% 29.93 in 10.0 mi South 17.3 mph - N/A   Clear
5:53 PM 73.0 °F 46.9 °F 39% 29.94 in 10.0 mi South 11.5 mph - N/A   Clear
6:53 PM 71.1 °F 46.9 °F 42% 29.95 in 10.0 mi SE 5.8 mph - N/A   Clear
7:53 PM 68.0 °F 48.9 °F 50% 29.96 in 10.0 mi East 5.8 mph - N/A   Clear
8:53 PM 66.9 °F 48.9 °F 52% 29.97 in 10.0 mi ESE 5.8 mph - N/A   Mostly Cloudy
9:53 PM 64.9 °F 48.9 °F 56% 29.99 in 10.0 mi Calm Calm - N/A   Mostly Cloudy
10:53 PM 64.0 °F 48.9 °F 58% 30.00 in 10.0 mi NE 4.6 mph - N/A   Scattered Clouds
11:53 PM 62.1 °F 50.0 °F 65% 30.00 in 10.0 mi North 3.5 mph - N/A   Clear